���t,����,�O�C���x,�����t���O,�O�C���Ύ��x,�����t���O,���ԉ��x,�����t���O,���ԑ��Ύ��x,�����t���O,�g�C������,�����t���O,�L�b�`�����x,�����t���O,��󒲎����x,�����t���O
2004/5/1,0:00,17.8 ,0,85.0 ,0,20.2 ,0,72.1 ,0,19.1 ,0,21.2 ,0,20.8 ,0
2004/5/1,0:15,17.6 ,0,86.0 ,0,20.0 ,0,71.4 ,0,19.2 ,0,21.1 ,0,20.9 ,0
2004/5/1,0:30,17.6 ,0,86.0 ,0,19.9 ,0,71.2 ,0,19.2 ,0,21.1 ,0,21.1 ,0
2004/5/1,0:45,17.4 ,0,87.0 ,0,19.8 ,0,71.2 ,0,19.2 ,0,21.1 ,0,21.0 ,0
2004/5/1,1:00,17.4 ,0,87.0 ,0,19.8 ,0,71.1 ,0,19.2 ,0,20.9 ,0,20.8 ,0
2004/5/1,1:15,17.6 ,0,84.0 ,0,19.7 ,0,70.9 ,0,19.3 ,0,20.8 ,0,20.7 ,0
2004/5/1,1:30,17.4 ,0,85.0 ,0,19.6 ,0,70.8 ,0,19.3 ,0,20.7 ,0,20.6 ,0
2004/5/1,1:45,17.2 ,0,87.0 ,0,19.5 ,0,71.1 ,0,19.3 ,0,20.6 ,0,20.6 ,0
2004/5/1,2:00,17.3 ,0,86.0 ,0,19.5 ,0,71.5 ,0,19.3 ,0,20.5 ,0,20.5 ,0
2004/5/1,2:15,17.2 ,0,86.0 ,0,19.4 ,0,71.6 ,0,19.4 ,0,20.5 ,0,20.4 ,0
2004/5/1,2:30,17.1 ,0,87.0 ,0,19.3 ,0,71.9 ,0,19.4 ,0,20.3 ,0,20.3 ,0
2004/5/1,2:45,16.9 ,0,89.0 ,0,19.2 ,0,72.2 ,0,19.4 ,0,20.3 ,0,20.3 ,0
2004/5/1,3:00,16.7 ,0,90.0 ,0,19.2 ,0,72.4 ,0,19.4 ,0,20.2 ,0,20.2 ,0
2004/5/1,3:15,16.6 ,0,90.0 ,0,19.1 ,0,72.3 ,0,19.5 ,0,20.1 ,0,20.1 ,0
2004/5/1,3:30,16.9 ,0,91.0 ,0,19.0 ,0,72.2 ,0,19.5 ,0,20.1 ,0,20.1 ,0
2004/5/1,3:45,16.9 ,0,91.0 ,0,19.0 ,0,72.0 ,0,19.5 ,0,20.0 ,0,20.0 ,0
2004/5/1,4:00,16.9 ,0,93.0 ,0,18.9 ,0,72.2 ,0,19.5 ,0,19.9 ,0,19.9 ,0
2004/5/1,4:15,16.6 ,0,94.0 ,0,18.8 ,0,72.6 ,0,19.6 ,0,19.9 ,0,19.9 ,0
2004/5/1,4:30,16.5 ,0,94.0 ,0,18.8 ,0,72.9 ,0,19.6 ,0,19.8 ,0,19.8 ,0
2004/5/1,4:45,16.6 ,0,95.0 ,0,18.7 ,0,72.9 ,0,19.6 ,0,19.8 ,0,19.8 ,0
2004/5/1,5:00,16.5 ,0,96.0 ,0,18.7 ,0,72.9 ,0,19.6 ,0,19.7 ,0,19.7 ,0
2004/5/1,5:15,16.5 ,0,95.0 ,0,18.6 ,0,73.0 ,0,19.6 ,0,19.6 ,0,19.6 ,0
2004/5/1,5:30,16.2 ,0,96.0 ,0,18.5 ,0,73.0 ,0,19.6 ,0,19.5 ,0,19.5 ,0
2004/5/1,5:45,16.2 ,0,96.0 ,0,18.5 ,0,73.2 ,0,19.7 ,0,19.5 ,0,19.5 ,0
2004/5/1,6:00,16.1 ,0,97.0 ,0,18.5 ,0,72.9 ,0,19.7 ,0,19.5 ,0,19.5 ,0
2004/5/1,6:15,16.1 ,0,97.0 ,0,18.7 ,0,71.9 ,0,19.7 ,0,19.4 ,0,19.4 ,0
2004/5/1,6:30,16.3 ,0,96.0 ,0,18.9 ,0,70.9 ,0,19.7 ,0,19.4 ,0,19.4 ,0
2004/5/1,6:45,16.6 ,0,95.0 ,0,19.8 ,0,67.4 ,0,19.7 ,0,19.4 ,0,19.4 ,0
2004/5/1,7:00,17.1 ,0,92.0 ,0,20.6 ,0,65.1 ,0,19.7 ,0,19.3 ,0,19.4 ,0
2004/5/1,7:15,17.7 ,0,89.0 ,0,20.9 ,0,66.6 ,0,19.8 ,0,19.4 ,0,19.4 ,0
2004/5/1,7:30,18.4 ,0,86.0 ,0,23.1 ,0,64.4 ,0,19.5 ,0,19.5 ,0,19.5 ,0
2004/5/1,7:45,20.2 ,0,80.0 ,0,25.7 ,0,53.1 ,0,19.5 ,0,19.6 ,0,19.7 ,0
2004/5/1,8:00,21.4 ,0,70.0 ,0,25.8 ,0,51.0 ,0,19.0 ,0,19.7 ,0,19.6 ,0
2004/5/1,8:15,21.7 ,0,65.0 ,0,25.7 ,0,50.9 ,0,19.0 ,0,19.8 ,0,19.6 ,0
2004/5/1,8:30,21.4 ,0,64.0 ,0,26.9 ,0,48.9 ,0,19.0 ,0,20.0 ,0,19.9 ,0
2004/5/1,8:45,22.3 ,0,62.0 ,0,25.9 ,0,51.3 ,0,19.1 ,0,20.2 ,0,20.1 ,0
2004/5/1,9:00,21.3 ,0,66.0 ,0,25.9 ,0,52.2 ,0,19.1 ,0,20.3 ,0,20.3 ,0
2004/5/1,9:15,22.5 ,0,62.0 ,0,26.6 ,0,50.2 ,0,19.1 ,0,20.8 ,0,20.4 ,0
2004/5/1,9:30,22.9 ,0,59.0 ,0,26.8 ,0,49.6 ,0,19.1 ,0,21.0 ,0,20.1 ,0
2004/5/1,9:45,22.5 ,0,61.0 ,0,27.1 ,0,48.9 ,0,19.1 ,0,21.0 ,0,20.1 ,0
2004/5/1,10:00,22.6 ,0,57.0 ,0,27.4 ,0,47.0 ,0,19.1 ,0,21.2 ,0,20.4 ,0
2004/5/1,10:15,22.9 ,0,53.0 ,0,26.8 ,0,47.6 ,0,19.3 ,0,21.3 ,0,20.6 ,0
2004/5/1,10:30,23.5 ,0,51.0 ,0,27.3 ,0,46.9 ,0,19.2 ,0,21.5 ,0,21.0 ,0
2004/5/1,10:45,23.4 ,0,57.0 ,0,26.9 ,0,48.2 ,0,19.3 ,0,21.8 ,0,21.5 ,0
2004/5/1,11:00,22.9 ,0,58.0 ,0,26.8 ,0,49.2 ,0,19.3 ,0,21.8 ,0,21.7 ,0
2004/5/1,11:15,22.5 ,0,60.0 ,0,26.5 ,0,50.0 ,0,19.3 ,0,22.1 ,0,21.7 ,0
2004/5/1,11:30,22.4 ,0,60.0 ,0,26.5 ,0,50.0 ,0,19.3 ,0,22.4 ,0,21.9 ,0
2004/5/1,11:45,22.9 ,0,59.0 ,0,26.7 ,0,49.3 ,0,19.3 ,0,22.6 ,0,22.0 ,0
2004/5/1,12:00,22.4 ,0,59.0 ,0,26.5 ,0,49.9 ,0,19.3 ,0,22.7 ,0,21.8 ,0
2004/5/1,12:15,23.0 ,0,58.0 ,0,26.5 ,0,49.7 ,0,19.4 ,0,22.9 ,0,21.9 ,0
2004/5/1,12:30,22.7 ,0,59.0 ,0,26.5 ,0,50.0 ,0,19.4 ,0,23.1 ,0,22.0 ,0
2004/5/1,12:45,22.0 ,0,61.0 ,0,26.3 ,0,50.3 ,0,19.4 ,0,23.2 ,0,22.2 ,0
2004/5/1,13:00,22.2 ,0,62.0 ,0,26.5 ,0,50.3 ,0,19.5 ,0,23.4 ,0,22.3 ,0
2004/5/1,13:15,21.5 ,0,63.0 ,0,26.3 ,0,50.8 ,0,19.5 ,0,23.5 ,0,22.3 ,0
2004/5/1,13:30,21.6 ,0,63.0 ,0,26.4 ,0,50.7 ,0,19.5 ,0,23.6 ,0,22.3 ,0
2004/5/1,13:45,21.6 ,0,62.0 ,0,26.1 ,0,51.4 ,0,19.5 ,0,23.7 ,0,22.3 ,0
2004/5/1,14:00,21.4 ,0,64.0 ,0,26.0 ,0,51.9 ,0,19.6 ,0,23.8 ,0,22.3 ,0
2004/5/1,14:15,21.6 ,0,62.0 ,0,26.0 ,0,51.9 ,0,19.6 ,0,23.9 ,0,22.3 ,0
2004/5/1,14:30,21.5 ,0,61.0 ,0,25.9 ,0,52.1 ,0,19.6 ,0,23.9 ,0,22.2 ,0
2004/5/1,14:45,21.4 ,0,63.0 ,0,25.8 ,0,52.6 ,0,19.7 ,0,23.9 ,0,22.2 ,0
2004/5/1,15:00,20.8 ,0,66.0 ,0,25.7 ,0,52.7 ,0,19.7 ,0,24.0 ,0,22.2 ,0
2004/5/1,15:15,20.8 ,0,65.0 ,0,25.7 ,0,52.7 ,0,19.7 ,0,24.0 ,0,22.3 ,0
2004/5/1,15:30,20.7 ,0,65.0 ,0,25.5 ,0,53.2 ,0,19.8 ,0,24.0 ,0,22.1 ,0
2004/5/1,15:45,20.6 ,0,64.0 ,0,25.3 ,0,53.3 ,0,19.8 ,0,24.0 ,0,22.0 ,0
2004/5/1,16:00,20.6 ,0,67.0 ,0,25.2 ,0,53.5 ,0,19.8 ,0,24.0 ,0,21.9 ,0
2004/5/1,16:15,21.0 ,0,64.0 ,0,24.9 ,0,54.1 ,0,19.9 ,0,24.0 ,0,21.8 ,0
2004/5/1,16:30,20.8 ,0,64.0 ,0,24.7 ,0,54.9 ,0,19.9 ,0,23.9 ,0,21.6 ,0
2004/5/1,16:45,21.2 ,0,64.0 ,0,24.7 ,0,55.0 ,0,19.9 ,0,23.9 ,0,21.6 ,0
2004/5/1,17:00,21.2 ,0,65.0 ,0,24.6 ,0,55.5 ,0,20.0 ,0,23.8 ,0,21.6 ,0
2004/5/1,17:15,21.0 ,0,64.0 ,0,24.2 ,0,56.4 ,0,20.0 ,0,23.8 ,0,21.7 ,0
2004/5/1,17:30,20.8 ,0,65.0 ,0,23.8 ,0,57.7 ,0,20.1 ,0,23.8 ,0,21.9 ,0
2004/5/1,17:45,20.8 ,0,66.0 ,0,23.5 ,0,58.8 ,0,20.1 ,0,23.7 ,0,21.9 ,0
2004/5/1,18:00,20.2 ,0,67.0 ,0,23.1 ,0,60.2 ,0,20.2 ,0,23.7 ,0,21.9 ,0
2004/5/1,18:15,19.9 ,0,68.0 ,0,22.9 ,0,60.9 ,0,20.2 ,0,23.6 ,0,21.7 ,0
2004/5/1,18:30,19.7 ,0,69.0 ,0,22.6 ,0,61.7 ,0,20.2 ,0,23.4 ,0,21.5 ,0
2004/5/1,18:45,19.6 ,0,72.0 ,0,22.3 ,0,62.6 ,0,20.3 ,0,23.2 ,0,21.3 ,0
2004/5/1,19:00,19.4 ,0,74.0 ,0,22.1 ,0,63.4 ,0,20.3 ,0,23.1 ,0,21.1 ,0
2004/5/1,19:15,19.0 ,0,77.0 ,0,21.8 ,0,64.6 ,0,20.4 ,0,22.9 ,0,20.9 ,0
2004/5/1,19:30,18.6 ,0,79.0 ,0,21.6 ,0,65.4 ,0,20.4 ,0,22.7 ,0,20.8 ,0
2004/5/1,19:45,18.6 ,0,79.0 ,0,21.4 ,0,65.8 ,0,20.4 ,0,22.6 ,0,20.6 ,0
2004/5/1,20:00,18.5 ,0,78.0 ,0,21.3 ,0,66.2 ,0,20.5 ,0,22.5 ,0,20.4 ,0
2004/5/1,20:15,18.3 ,0,78.0 ,0,21.1 ,0,66.7 ,0,20.5 ,0,22.3 ,0,20.2 ,0
2004/5/1,20:30,18.4 ,0,78.0 ,0,21.0 ,0,67.0 ,0,20.5 ,0,22.2 ,0,20.1 ,0
2004/5/1,20:45,18.3 ,0,77.0 ,0,20.7 ,0,68.9 ,0,20.6 ,0,22.1 ,0,20.0 ,0
2004/5/1,21:00,18.4 ,0,76.0 ,0,20.8 ,0,72.6 ,0,20.6 ,0,22.0 ,0,19.9 ,0
2004/5/1,21:15,18.3 ,0,77.0 ,0,20.9 ,0,73.3 ,0,20.6 ,0,21.9 ,0,19.8 ,0
2004/5/1,21:30,18.3 ,0,78.0 ,0,20.9 ,0,72.8 ,0,20.6 ,0,22.0 ,0,19.4 ,0
2004/5/1,21:45,18.2 ,0,78.0 ,0,20.9 ,0,72.3 ,0,20.7 ,0,22.7 ,0,19.6 ,0
2004/5/1,22:00,18.3 ,0,79.0 ,0,20.8 ,0,71.6 ,0,20.7 ,0,22.5 ,0,19.9 ,0
2004/5/1,22:15,18.1 ,0,79.0 ,0,20.6 ,0,71.4 ,0,20.3 ,0,22.3 ,0,20.1 ,0
2004/5/1,22:30,18.1 ,0,80.0 ,0,20.6 ,0,71.5 ,0,20.3 ,0,22.2 ,0,20.3 ,0
2004/5/1,22:45,18.0 ,0,82.0 ,0,20.7 ,0,74.2 ,0,20.3 ,0,22.1 ,0,19.7 ,0
2004/5/1,23:00,18.1 ,0,82.0 ,0,20.7 ,0,73.4 ,0,20.3 ,0,21.9 ,0,19.2 ,0
2004/5/1,23:15,18.1 ,0,83.0 ,0,20.6 ,0,72.3 ,0,19.9 ,0,21.8 ,0,19.0 ,0
2004/5/1,23:30,18.1 ,0,82.0 ,0,20.6 ,0,72.0 ,0,19.9 ,0,21.9 ,0,18.9 ,0
2004/5/1,23:45,18.1 ,0,82.0 ,0,20.4 ,0,72.0 ,0,19.9 ,0,21.8 ,0,18.8 ,0
2004/5/2,0:00,18.2 ,0,82.0 ,0,20.4 ,0,72.1 ,0,19.9 ,0,21.6 ,0,18.8 ,0
2004/5/2,0:15,18.1 ,0,82.0 ,0,20.5 ,0,73.5 ,0,19.9 ,0,21.5 ,0,18.8 ,0
2004/5/2,0:30,18.0 ,0,83.0 ,0,20.5 ,0,73.7 ,0,19.2 ,0,21.4 ,0,18.7 ,0
2004/5/2,0:45,17.9 ,0,83.0 ,0,20.3 ,0,73.1 ,0,19.2 ,0,21.4 ,0,19.0 ,0
2004/5/2,1:00,17.9 ,0,82.0 ,0,20.2 ,0,73.1 ,0,19.3 ,0,21.4 ,0,19.1 ,0
2004/5/2,1:15,17.9 ,0,83.0 ,0,20.1 ,0,73.2 ,0,19.3 ,0,21.5 ,0,19.2 ,0
2004/5/2,1:30,17.6 ,0,85.0 ,0,20.0 ,0,73.2 ,0,19.4 ,0,21.4 ,0,19.1 ,0
2004/5/2,1:45,17.6 ,0,86.0 ,0,19.9 ,0,73.2 ,0,19.4 ,0,21.3 ,0,19.0 ,0
2004/5/2,2:00,17.5 ,0,87.0 ,0,19.9 ,0,73.3 ,0,19.4 ,0,21.2 ,0,18.9 ,0
2004/5/2,2:15,17.5 ,0,88.0 ,0,19.8 ,0,73.6 ,0,19.4 ,0,21.1 ,0,19.0 ,0
2004/5/2,2:30,17.4 ,0,88.0 ,0,19.7 ,0,73.8 ,0,19.5 ,0,21.0 ,0,18.9 ,0
2004/5/2,2:45,17.2 ,0,88.0 ,0,19.7 ,0,73.7 ,0,19.5 ,0,20.9 ,0,18.9 ,0
2004/5/2,3:00,17.2 ,0,87.0 ,0,19.6 ,0,73.7 ,0,19.5 ,0,20.8 ,0,18.9 ,0
2004/5/2,3:15,17.2 ,0,87.0 ,0,19.6 ,0,73.8 ,0,19.5 ,0,20.8 ,0,19.0 ,0
2004/5/2,3:30,17.1 ,0,87.0 ,0,19.5 ,0,73.7 ,0,19.5 ,0,20.8 ,0,19.0 ,0
2004/5/2,3:45,17.0 ,0,87.0 ,0,19.4 ,0,73.7 ,0,19.6 ,0,20.7 ,0,18.9 ,0
2004/5/2,4:00,16.8 ,0,88.0 ,0,19.3 ,0,73.7 ,0,19.6 ,0,20.7 ,0,18.9 ,0
2004/5/2,4:15,16.9 ,0,88.0 ,0,19.3 ,0,74.1 ,0,19.6 ,0,20.6 ,0,18.9 ,0
2004/5/2,4:30,17.0 ,0,88.0 ,0,19.3 ,0,74.2 ,0,19.6 ,0,20.5 ,0,18.9 ,0
2004/5/2,4:45,17.0 ,0,88.0 ,0,19.2 ,0,74.1 ,0,19.6 ,0,20.4 ,0,18.6 ,0
2004/5/2,5:00,17.0 ,0,88.0 ,0,19.2 ,0,74.5 ,0,19.7 ,0,20.4 ,0,18.5 ,0
2004/5/2,5:15,16.8 ,0,89.0 ,0,19.1 ,0,74.7 ,0,19.7 ,0,20.3 ,0,18.5 ,0
2004/5/2,5:30,16.9 ,0,89.0 ,0,19.1 ,0,74.6 ,0,19.7 ,0,20.3 ,0,18.3 ,0
2004/5/2,5:45,16.9 ,0,90.0 ,0,19.1 ,0,74.7 ,0,19.7 ,0,20.2 ,0,18.1 ,0
2004/5/2,6:00,16.9 ,0,90.0 ,0,19.2 ,0,74.3 ,0,19.7 ,0,20.2 ,0,18.1 ,0
2004/5/2,6:15,17.1 ,0,91.0 ,0,19.4 ,0,73.3 ,0,19.8 ,0,20.1 ,0,18.1 ,0
2004/5/2,6:30,17.4 ,0,89.0 ,0,19.7 ,0,72.7 ,0,19.8 ,0,20.0 ,0,18.1 ,0
2004/5/2,6:45,17.7 ,0,88.0 ,0,20.4 ,0,72.2 ,0,19.8 ,0,20.0 ,0,18.1 ,0
2004/5/2,7:00,18.4 ,0,85.0 ,0,20.8 ,0,71.5 ,0,19.9 ,0,20.0 ,0,18.1 ,0
2004/5/2,7:15,18.7 ,0,80.0 ,0,21.5 ,0,69.4 ,0,19.9 ,0,20.1 ,0,18.1 ,0
2004/5/2,7:30,19.6 ,0,78.0 ,0,22.7 ,0,63.4 ,0,20.0 ,0,20.7 ,0,18.2 ,0
2004/5/2,7:45,20.5 ,0,72.0 ,0,23.1 ,0,60.8 ,0,20.0 ,0,20.8 ,0,18.7 ,0
2004/5/2,8:00,20.8 ,0,69.0 ,0,22.7 ,0,61.9 ,0,20.0 ,0,20.9 ,0,19.2 ,0
2004/5/2,8:15,22.8 ,0,63.0 ,0,24.9 ,0,54.8 ,0,20.0 ,0,21.1 ,0,19.4 ,0
2004/5/2,8:30,22.9 ,0,58.0 ,0,24.8 ,0,55.6 ,0,19.7 ,0,21.2 ,0,19.4 ,0
2004/5/2,8:45,22.6 ,0,61.0 ,0,24.6 ,0,56.2 ,0,19.7 ,0,21.2 ,0,19.6 ,0
2004/5/2,9:00,22.8 ,0,61.0 ,0,27.2 ,0,48.7 ,0,19.7 ,0,21.5 ,0,20.0 ,0
2004/5/2,9:15,26.6 ,0,50.0 ,0,28.0 ,0,47.2 ,0,19.7 ,0,21.8 ,0,20.4 ,0
2004/5/2,9:30,28.5 ,0,43.0 ,0,29.0 ,0,43.6 ,0,19.7 ,0,21.9 ,0,20.9 ,0
2004/5/2,9:45,26.8 ,0,47.0 ,0,28.7 ,0,44.4 ,0,19.7 ,0,22.2 ,0,21.5 ,0
2004/5/2,10:00,26.3 ,0,48.0 ,0,28.0 ,0,46.9 ,0,19.6 ,0,22.5 ,0,21.9 ,0
2004/5/2,10:15,25.9 ,0,46.0 ,0,28.5 ,0,45.3 ,0,19.7 ,0,22.7 ,0,22.3 ,0
2004/5/2,10:30,27.3 ,0,43.0 ,0,28.2 ,0,44.7 ,0,19.7 ,0,22.9 ,0,22.7 ,0
2004/5/2,10:45,26.7 ,0,41.0 ,0,27.4 ,0,44.1 ,0,19.6 ,0,23.1 ,0,22.8 ,0
2004/5/2,11:00,25.9 ,0,43.0 ,0,27.5 ,0,44.4 ,0,19.6 ,0,23.3 ,0,23.0 ,0
2004/5/2,11:15,26.5 ,0,43.0 ,0,27.1 ,0,45.6 ,0,19.6 ,0,23.5 ,0,23.2 ,0
2004/5/2,11:30,26.0 ,0,44.0 ,0,26.9 ,0,46.3 ,0,19.6 ,0,23.7 ,0,23.2 ,0
2004/5/2,11:45,25.6 ,0,45.0 ,0,26.8 ,0,46.4 ,0,19.6 ,0,23.8 ,0,23.3 ,0
2004/5/2,12:00,25.8 ,0,44.0 ,0,26.8 ,0,45.9 ,0,19.7 ,0,23.9 ,0,23.4 ,0
2004/5/2,12:15,25.7 ,0,43.0 ,0,26.8 ,0,44.6 ,0,19.7 ,0,23.9 ,0,23.4 ,0
2004/5/2,12:30,26.2 ,0,43.0 ,0,27.2 ,0,44.6 ,0,19.7 ,0,24.0 ,0,23.5 ,0
2004/5/2,12:45,27.1 ,0,39.0 ,0,27.4 ,0,43.9 ,0,19.7 ,0,24.1 ,0,23.5 ,0
2004/5/2,13:00,27.1 ,0,41.0 ,0,27.6 ,0,44.1 ,0,19.8 ,0,24.2 ,0,23.6 ,0
2004/5/2,13:15,27.1 ,0,43.0 ,0,27.5 ,0,45.1 ,0,19.8 ,0,24.3 ,0,23.9 ,0
2004/5/2,13:30,27.0 ,0,44.0 ,0,27.3 ,0,46.2 ,0,19.8 ,0,24.5 ,0,24.0 ,0
2004/5/2,13:45,26.5 ,0,45.0 ,0,27.2 ,0,46.9 ,0,19.9 ,0,24.7 ,0,24.1 ,0
2004/5/2,14:00,25.6 ,0,49.0 ,0,26.8 ,0,48.9 ,0,19.9 ,0,24.8 ,0,24.2 ,0
2004/5/2,14:15,25.7 ,0,49.0 ,0,27.0 ,0,48.5 ,0,19.9 ,0,24.9 ,0,24.3 ,0
2004/5/2,14:30,26.2 ,0,46.0 ,0,27.0 ,0,48.6 ,0,19.9 ,0,24.9 ,0,24.3 ,0
2004/5/2,14:45,25.9 ,0,49.0 ,0,26.6 ,0,50.9 ,0,20.0 ,0,24.8 ,0,24.3 ,0
2004/5/2,15:00,25.3 ,0,49.0 ,0,26.3 ,0,51.9 ,0,20.0 ,0,24.8 ,0,24.4 ,0
2004/5/2,15:15,25.2 ,0,50.0 ,0,26.1 ,0,52.5 ,0,20.1 ,0,24.9 ,0,24.5 ,0
2004/5/2,15:30,24.7 ,0,53.0 ,0,25.8 ,0,53.4 ,0,20.1 ,0,24.9 ,0,24.5 ,0
2004/5/2,15:45,24.4 ,0,54.0 ,0,25.6 ,0,55.0 ,0,20.2 ,0,24.8 ,0,24.5 ,0
2004/5/2,16:00,24.4 ,0,55.0 ,0,25.5 ,0,55.7 ,0,20.2 ,0,24.8 ,0,24.4 ,0
2004/5/2,16:15,24.2 ,0,55.0 ,0,25.4 ,0,56.0 ,0,20.2 ,0,24.7 ,0,24.3 ,0
2004/5/2,16:30,24.3 ,0,54.0 ,0,25.6 ,0,55.4 ,0,20.3 ,0,24.6 ,0,24.2 ,0
2004/5/2,16:45,24.8 ,0,52.0 ,0,25.7 ,0,54.9 ,0,20.3 ,0,24.6 ,0,24.1 ,0
2004/5/2,17:00,24.6 ,0,51.0 ,0,25.6 ,0,54.9 ,0,20.4 ,0,24.5 ,0,24.1 ,0
2004/5/2,17:15,24.8 ,0,49.0 ,0,25.4 ,0,55.0 ,0,20.4 ,0,24.5 ,0,24.1 ,0
2004/5/2,17:30,24.4 ,0,51.0 ,0,25.3 ,0,55.3 ,0,20.5 ,0,24.6 ,0,24.3 ,0
2004/5/2,17:45,24.4 ,0,52.0 ,0,25.2 ,0,55.4 ,0,20.5 ,0,24.6 ,0,24.3 ,0
2004/5/2,18:00,24.1 ,0,53.0 ,0,25.0 ,0,56.0 ,0,20.6 ,0,24.6 ,0,24.2 ,0
2004/5/2,18:15,23.7 ,0,56.0 ,0,24.8 ,0,56.7 ,0,20.6 ,0,24.5 ,0,24.2 ,0
2004/5/2,18:30,23.3 ,0,58.0 ,0,24.5 ,0,57.9 ,0,20.7 ,0,24.5 ,0,24.1 ,0
2004/5/2,18:45,23.1 ,0,61.0 ,0,24.2 ,0,59.5 ,0,20.7 ,0,24.4 ,0,24.0 ,0
2004/5/2,19:00,22.7 ,0,64.0 ,0,24.0 ,0,61.0 ,0,20.7 ,0,24.4 ,0,23.8 ,0
2004/5/2,19:15,22.2 ,0,66.0 ,0,23.7 ,0,62.0 ,0,20.8 ,0,24.3 ,0,23.6 ,0
2004/5/2,19:30,22.1 ,0,66.0 ,0,23.5 ,0,62.9 ,0,20.8 ,0,24.2 ,0,23.4 ,0
2004/5/2,19:45,22.0 ,0,67.0 ,0,23.4 ,0,63.5 ,0,20.9 ,0,24.1 ,0,23.1 ,0
2004/5/2,20:00,22.1 ,0,67.0 ,0,23.2 ,0,64.0 ,0,20.9 ,0,24.0 ,0,22.9 ,0
2004/5/2,20:15,22.0 ,0,66.0 ,0,23.2 ,0,64.3 ,0,21.0 ,0,23.9 ,0,22.8 ,0
2004/5/2,20:30,22.0 ,0,67.0 ,0,23.1 ,0,64.6 ,0,21.0 ,0,23.8 ,0,22.7 ,0
2004/5/2,20:45,21.9 ,0,67.0 ,0,23.1 ,0,64.7 ,0,21.1 ,0,23.7 ,0,22.7 ,0
2004/5/2,21:00,22.0 ,0,67.0 ,0,23.1 ,0,64.8 ,0,21.1 ,0,23.6 ,0,22.6 ,0
2004/5/2,21:15,21.8 ,0,68.0 ,0,23.1 ,0,65.6 ,0,21.1 ,0,23.6 ,0,22.6 ,0
2004/5/2,21:30,21.7 ,0,70.0 ,0,23.2 ,0,66.7 ,0,21.2 ,0,23.5 ,0,22.5 ,0
2004/5/2,21:45,21.4 ,0,74.0 ,0,23.2 ,0,67.4 ,0,21.2 ,0,23.5 ,0,22.4 ,0
2004/5/2,22:00,21.3 ,0,75.0 ,0,23.1 ,0,67.9 ,0,21.3 ,0,23.4 ,0,22.2 ,0
2004/5/2,22:15,20.8 ,0,78.0 ,0,23.0 ,0,69.6 ,0,21.3 ,0,23.7 ,0,22.3 ,0
2004/5/2,22:30,20.5 ,0,80.0 ,0,22.9 ,0,70.8 ,0,21.3 ,0,23.7 ,0,22.2 ,0
2004/5/2,22:45,20.5 ,0,80.0 ,0,22.8 ,0,71.1 ,0,21.4 ,0,23.7 ,0,22.0 ,0
2004/5/2,23:00,20.3 ,0,82.0 ,0,22.7 ,0,71.7 ,0,20.1 ,0,23.7 ,0,21.9 ,0
2004/5/2,23:15,20.3 ,0,81.0 ,0,22.6 ,0,70.9 ,0,20.2 ,0,23.7 ,0,21.5 ,0
2004/5/2,23:30,20.3 ,0,81.0 ,0,22.6 ,0,71.9 ,0,20.2 ,0,23.6 ,0,21.3 ,0
2004/5/2,23:45,20.3 ,0,80.0 ,0,22.5 ,0,71.4 ,0,20.2 ,0,23.6 ,0,21.1 ,0
2004/5/3,0:00,20.4 ,0,80.0 ,0,22.5 ,0,71.4 ,0,19.7 ,0,23.5 ,0,21.0 ,0
2004/5/3,0:15,20.5 ,0,80.0 ,0,22.6 ,0,73.7 ,0,19.5 ,0,23.4 ,0,20.9 ,0
2004/5/3,0:30,20.4 ,0,81.0 ,0,22.5 ,0,73.4 ,0,19.5 ,0,23.4 ,0,21.0 ,0
2004/5/3,0:45,20.3 ,0,79.0 ,0,22.4 ,0,74.3 ,0,19.6 ,0,23.4 ,0,21.2 ,0
2004/5/3,1:00,19.8 ,0,80.0 ,0,22.2 ,0,74.8 ,0,19.6 ,0,23.4 ,0,21.4 ,0
2004/5/3,1:15,19.8 ,0,82.0 ,0,22.0 ,0,74.9 ,0,19.6 ,0,23.3 ,0,21.4 ,0
2004/5/3,1:30,19.5 ,0,82.0 ,0,21.9 ,0,75.1 ,0,19.7 ,0,23.2 ,0,21.1 ,0
2004/5/3,1:45,19.5 ,0,83.0 ,0,21.8 ,0,75.4 ,0,19.7 ,0,23.1 ,0,20.7 ,0
2004/5/3,2:00,19.3 ,0,84.0 ,0,21.6 ,0,75.6 ,0,19.6 ,0,23.1 ,0,20.3 ,0
2004/5/3,2:15,18.9 ,0,88.0 ,0,21.2 ,0,76.6 ,0,19.7 ,0,22.9 ,0,20.2 ,0
2004/5/3,2:30,18.7 ,0,90.0 ,0,21.0 ,0,77.5 ,0,19.7 ,0,22.9 ,0,20.2 ,0
2004/5/3,2:45,18.6 ,0,92.0 ,0,20.9 ,0,78.4 ,0,19.8 ,0,22.7 ,0,19.9 ,0
2004/5/3,3:00,18.5 ,0,92.0 ,0,20.9 ,0,78.5 ,0,19.8 ,0,22.6 ,0,19.7 ,0
2004/5/3,3:15,18.6 ,0,93.0 ,0,20.9 ,0,78.5 ,0,19.8 ,0,22.5 ,0,19.5 ,0
2004/5/3,3:30,18.7 ,0,94.0 ,0,20.9 ,0,78.5 ,0,19.9 ,0,22.4 ,0,19.6 ,0
2004/5/3,3:45,18.6 ,0,96.0 ,0,20.9 ,0,78.5 ,0,19.9 ,0,22.3 ,0,19.7 ,0
2004/5/3,4:00,18.8 ,0,95.0 ,0,20.9 ,0,78.3 ,0,19.9 ,0,22.3 ,0,19.8 ,0
2004/5/3,4:15,18.8 ,0,94.0 ,0,20.8 ,0,78.2 ,0,19.9 ,0,22.2 ,0,19.8 ,0
2004/5/3,4:30,18.8 ,0,93.0 ,0,20.8 ,0,78.1 ,0,20.0 ,0,22.2 ,0,20.0 ,0
2004/5/3,4:45,18.9 ,0,93.0 ,0,20.8 ,0,78.1 ,0,20.0 ,0,22.1 ,0,20.2 ,0
2004/5/3,5:00,18.8 ,0,93.0 ,0,20.7 ,0,77.7 ,0,20.0 ,0,22.1 ,0,20.1 ,0
2004/5/3,5:15,18.8 ,0,93.0 ,0,20.7 ,0,78.0 ,0,20.1 ,0,22.0 ,0,19.9 ,0
2004/5/3,5:30,18.8 ,0,93.0 ,0,20.7 ,0,78.2 ,0,20.1 ,0,22.0 ,0,19.8 ,0
2004/5/3,5:45,18.8 ,0,93.0 ,0,20.7 ,0,78.1 ,0,20.2 ,0,21.9 ,0,19.8 ,0
2004/5/3,6:00,18.8 ,0,93.0 ,0,20.6 ,0,77.9 ,0,20.2 ,0,21.8 ,0,19.7 ,0
2004/5/3,6:15,18.9 ,0,92.0 ,0,20.7 ,0,77.7 ,0,20.2 ,0,21.8 ,0,19.6 ,0
2004/5/3,6:30,18.9 ,0,92.0 ,0,20.9 ,0,77.1 ,0,20.3 ,0,21.7 ,0,19.7 ,0
2004/5/3,6:45,19.1 ,0,92.0 ,0,21.2 ,0,75.2 ,0,20.3 ,0,21.7 ,0,19.8 ,0
2004/5/3,7:00,19.3 ,0,90.0 ,0,21.4 ,0,74.6 ,0,20.3 ,0,21.7 ,0,19.8 ,0
2004/5/3,7:15,19.6 ,0,88.0 ,0,22.7 ,0,71.1 ,0,20.4 ,0,21.6 ,0,19.8 ,0
2004/5/3,7:30,20.6 ,0,84.0 ,0,25.9 ,0,58.4 ,0,20.2 ,0,21.7 ,0,19.8 ,0
2004/5/3,7:45,21.6 ,0,75.0 ,0,24.5 ,0,63.4 ,0,20.2 ,0,21.7 ,0,20.1 ,0
2004/5/3,8:00,22.9 ,0,75.0 ,0,26.4 ,0,56.8 ,0,20.2 ,0,21.9 ,0,20.3 ,0
2004/5/3,8:15,23.1 ,0,69.0 ,0,26.1 ,0,58.7 ,0,20.2 ,0,22.1 ,0,20.7 ,0
2004/5/3,8:30,23.3 ,0,70.0 ,0,26.1 ,0,57.9 ,0,20.3 ,0,22.3 ,0,21.2 ,0
2004/5/3,8:45,24.3 ,0,67.0 ,0,27.6 ,0,52.5 ,0,20.3 ,0,22.5 ,0,22.1 ,0
2004/5/3,9:00,23.5 ,0,66.0 ,0,26.2 ,0,56.7 ,0,20.3 ,0,23.2 ,0,22.2 ,0
2004/5/3,9:15,23.5 ,0,67.0 ,0,26.7 ,0,56.1 ,0,20.3 ,0,23.3 ,0,22.5 ,0
2004/5/3,9:30,24.4 ,0,65.0 ,0,27.4 ,0,54.1 ,0,19.9 ,0,23.3 ,0,22.7 ,0
2004/5/3,9:45,24.7 ,0,60.0 ,0,26.2 ,0,57.1 ,0,19.9 ,0,23.4 ,0,22.9 ,0
2004/5/3,10:00,23.5 ,0,69.0 ,0,25.5 ,0,58.9 ,0,19.9 ,0,23.5 ,0,23.1 ,0
2004/5/3,10:15,22.7 ,0,76.0 ,0,24.9 ,0,60.7 ,0,19.9 ,0,23.7 ,0,23.7 ,0
2004/5/3,10:30,21.9 ,0,81.0 ,0,24.6 ,0,62.0 ,0,19.9 ,0,23.8 ,0,23.6 ,0
2004/5/3,10:45,21.9 ,0,83.0 ,0,24.4 ,0,66.0 ,0,19.9 ,0,23.7 ,0,23.2 ,0
2004/5/3,11:00,21.9 ,0,82.0 ,0,24.0 ,0,65.4 ,0,19.9 ,0,23.6 ,0,22.9 ,0
2004/5/3,11:15,21.6 ,0,84.0 ,0,24.0 ,0,65.6 ,0,20.0 ,0,23.5 ,0,22.6 ,0
2004/5/3,11:30,21.5 ,0,85.0 ,0,23.9 ,0,65.8 ,0,20.0 ,0,23.4 ,0,22.5 ,0
2004/5/3,11:45,21.3 ,0,85.0 ,0,23.4 ,0,67.1 ,0,20.1 ,0,23.3 ,0,22.4 ,0
2004/5/3,12:00,20.6 ,0,89.0 ,0,23.0 ,0,68.7 ,0,20.1 ,0,23.2 ,0,22.3 ,0
2004/5/3,12:15,20.4 ,0,91.0 ,0,22.9 ,0,69.8 ,0,20.1 ,0,23.2 ,0,22.1 ,0
2004/5/3,12:30,20.6 ,0,92.0 ,0,23.3 ,0,69.1 ,0,20.2 ,0,23.1 ,0,21.8 ,0
2004/5/3,12:45,20.9 ,0,91.0 ,0,23.3 ,0,68.6 ,0,20.2 ,0,23.0 ,0,21.5 ,0
2004/5/3,13:00,20.8 ,0,91.0 ,0,23.0 ,0,69.9 ,0,20.2 ,0,22.9 ,0,21.4 ,0
2004/5/3,13:15,20.7 ,0,93.0 ,0,22.7 ,0,70.6 ,0,20.3 ,0,22.9 ,0,21.4 ,0
2004/5/3,13:30,20.6 ,0,95.0 ,0,22.6 ,0,71.5 ,0,20.3 ,0,22.9 ,0,21.5 ,0
2004/5/3,13:45,20.7 ,0,96.0 ,0,22.7 ,0,71.2 ,0,20.3 ,0,22.9 ,0,21.5 ,0
2004/5/3,14:00,20.7 ,0,96.0 ,0,22.9 ,0,70.8 ,0,20.4 ,0,22.9 ,0,21.4 ,0
2004/5/3,14:15,21.2 ,0,93.0 ,0,23.1 ,0,70.4 ,0,20.4 ,0,22.8 ,0,21.3 ,0
2004/5/3,14:30,21.4 ,0,93.0 ,0,23.1 ,0,69.8 ,0,20.4 ,0,22.7 ,0,21.3 ,0
2004/5/3,14:45,21.4 ,0,94.0 ,0,23.0 ,0,70.1 ,0,20.5 ,0,22.7 ,0,21.5 ,0
2004/5/3,15:00,21.2 ,0,96.0 ,0,22.8 ,0,70.7 ,0,20.5 ,0,22.7 ,0,21.6 ,0
2004/5/3,15:15,21.1 ,0,97.0 ,0,22.6 ,0,72.4 ,0,20.5 ,0,22.7 ,0,21.7 ,0
2004/5/3,15:30,21.0 ,0,99.0 ,0,22.4 ,0,73.6 ,0,20.6 ,0,22.7 ,0,21.7 ,0
2004/5/3,15:45,20.9 ,0,99.0 ,0,22.1 ,0,74.8 ,0,20.6 ,0,22.7 ,0,21.7 ,0
2004/5/3,16:00,20.9 ,0,99.0 ,0,22.0 ,0,75.8 ,0,20.6 ,0,22.6 ,0,21.5 ,0
2004/5/3,16:15,20.9 ,0,99.0 ,0,21.9 ,0,76.2 ,0,20.7 ,0,22.5 ,0,21.4 ,0
2004/5/3,16:30,20.9 ,0,99.0 ,0,21.9 ,0,76.3 ,0,20.7 ,0,22.5 ,0,21.4 ,0
2004/5/3,16:45,21.0 ,0,99.0 ,0,21.9 ,0,77.0 ,0,20.7 ,0,22.4 ,0,21.4 ,0
2004/5/3,17:00,21.0 ,0,99.0 ,0,22.1 ,0,76.3 ,0,20.8 ,0,22.4 ,0,21.4 ,0
2004/5/3,17:15,21.1 ,0,99.0 ,0,22.1 ,0,75.9 ,0,20.8 ,0,22.3 ,0,21.4 ,0
2004/5/3,17:30,21.2 ,0,99.0 ,0,22.1 ,0,76.5 ,0,20.8 ,0,22.3 ,0,21.4 ,0
2004/5/3,17:45,21.3 ,0,97.0 ,0,22.3 ,0,75.7 ,0,20.9 ,0,22.3 ,0,21.4 ,0
2004/5/3,18:00,21.6 ,0,93.0 ,0,22.3 ,0,74.9 ,0,20.9 ,0,22.3 ,0,21.5 ,0
2004/5/3,18:15,21.5 ,0,92.0 ,0,22.3 ,0,75.3 ,0,20.9 ,0,22.3 ,0,21.6 ,0
2004/5/3,18:30,21.6 ,0,92.0 ,0,22.4 ,0,75.6 ,0,20.9 ,0,22.3 ,0,21.8 ,0
2004/5/3,18:45,21.8 ,0,91.0 ,0,22.4 ,0,75.3 ,0,21.0 ,0,22.3 ,0,21.9 ,0
2004/5/3,19:00,21.7 ,0,91.0 ,0,22.5 ,0,75.3 ,0,21.0 ,0,22.3 ,0,21.9 ,0
2004/5/3,19:15,21.9 ,0,91.0 ,0,22.5 ,0,75.5 ,0,20.4 ,0,22.4 ,0,22.0 ,0
2004/5/3,19:30,21.9 ,0,90.0 ,0,22.6 ,0,75.4 ,0,20.5 ,0,22.4 ,0,22.1 ,0
2004/5/3,19:45,22.1 ,0,90.0 ,0,22.8 ,0,80.3 ,0,20.5 ,0,22.4 ,0,22.0 ,0
2004/5/3,20:00,22.1 ,0,89.0 ,0,23.1 ,0,84.8 ,0,20.5 ,0,22.5 ,0,22.0 ,0
2004/5/3,20:15,22.2 ,0,88.0 ,0,23.1 ,0,78.1 ,0,20.0 ,0,22.7 ,0,22.1 ,0
2004/5/3,20:30,22.3 ,0,88.0 ,0,23.1 ,0,76.1 ,0,19.7 ,0,25.1 ,0,22.2 ,0
2004/5/3,20:45,22.2 ,0,88.0 ,0,23.0 ,0,75.2 ,0,19.8 ,0,24.2 ,0,22.3 ,0
2004/5/3,21:00,22.3 ,0,88.0 ,0,23.1 ,0,74.6 ,0,19.8 ,0,23.8 ,0,22.4 ,0
2004/5/3,21:15,22.3 ,0,88.0 ,0,23.1 ,0,74.0 ,0,19.8 ,0,23.5 ,0,22.4 ,0
2004/5/3,21:30,22.4 ,0,88.0 ,0,23.1 ,0,73.6 ,0,19.9 ,0,23.4 ,0,22.4 ,0
2004/5/3,21:45,22.3 ,0,88.0 ,0,23.1 ,0,73.6 ,0,19.9 ,0,23.3 ,0,22.5 ,0
2004/5/3,22:00,22.0 ,0,92.0 ,0,23.0 ,0,74.1 ,0,19.9 ,0,23.3 ,0,22.6 ,0
2004/5/3,22:15,21.8 ,0,95.0 ,0,22.8 ,0,74.6 ,0,20.0 ,0,23.3 ,0,22.6 ,0
2004/5/3,22:30,21.6 ,0,98.0 ,0,22.7 ,0,75.3 ,0,20.0 ,0,23.3 ,0,22.7 ,0
2004/5/3,22:45,21.4 ,0,99.0 ,0,22.6 ,0,75.9 ,0,20.1 ,0,23.2 ,0,22.8 ,0
2004/5/3,23:00,21.2 ,0,99.0 ,0,22.6 ,0,75.6 ,0,20.1 ,0,23.2 ,0,22.8 ,0
2004/5/3,23:15,21.3 ,0,99.0 ,0,22.6 ,0,77.2 ,0,20.1 ,0,23.2 ,0,22.8 ,0
2004/5/3,23:30,21.3 ,0,99.0 ,0,22.6 ,0,78.4 ,0,20.2 ,0,23.1 ,0,22.8 ,0
2004/5/3,23:45,21.3 ,0,99.0 ,0,22.6 ,0,77.9 ,0,20.2 ,0,23.1 ,0,22.9 ,0
2004/5/4,0:00,21.3 ,0,99.0 ,0,22.6 ,0,77.5 ,0,19.5 ,0,23.2 ,0,23.0 ,0
2004/5/4,0:15,21.3 ,0,99.0 ,0,22.7 ,0,79.3 ,0,19.5 ,0,23.1 ,0,23.0 ,0
2004/5/4,0:30,21.3 ,0,99.0 ,0,22.6 ,0,79.0 ,0,19.7 ,0,23.0 ,0,23.0 ,0
2004/5/4,0:45,21.4 ,0,99.0 ,0,22.7 ,0,78.9 ,0,19.7 ,0,23.0 ,0,23.2 ,0
2004/5/4,1:00,21.5 ,0,99.0 ,0,22.6 ,0,79.2 ,0,19.5 ,0,23.1 ,0,23.4 ,0
2004/5/4,1:15,21.5 ,0,99.0 ,0,22.7 ,0,79.1 ,0,19.6 ,0,23.1 ,0,23.3 ,0
2004/5/4,1:30,21.5 ,0,99.0 ,0,22.7 ,0,87.3 ,0,19.6 ,0,23.1 ,0,23.2 ,0
2004/5/4,1:45,21.4 ,0,99.0 ,0,22.7 ,0,83.0 ,0,19.8 ,0,23.1 ,0,23.2 ,0
2004/5/4,2:00,21.5 ,0,99.0 ,0,22.7 ,0,80.9 ,0,19.8 ,0,23.1 ,0,23.3 ,0
2004/5/4,2:15,21.7 ,0,99.0 ,0,22.7 ,0,79.8 ,0,19.8 ,0,23.1 ,0,23.4 ,0
2004/5/4,2:30,21.7 ,0,99.0 ,0,22.7 ,0,79.3 ,0,19.8 ,0,23.2 ,0,23.3 ,0
2004/5/4,2:45,21.7 ,0,99.0 ,0,22.6 ,0,78.7 ,0,19.9 ,0,23.1 ,0,23.3 ,0
2004/5/4,3:00,21.7 ,0,99.0 ,0,22.6 ,0,78.5 ,0,19.9 ,0,23.1 ,0,23.3 ,0
2004/5/4,3:15,21.7 ,0,99.0 ,0,22.6 ,0,78.3 ,0,19.9 ,0,23.0 ,0,23.3 ,0
2004/5/4,3:30,21.4 ,0,99.0 ,0,22.6 ,0,78.3 ,0,20.0 ,0,23.0 ,0,23.3 ,0
2004/5/4,3:45,20.9 ,0,99.0 ,0,22.4 ,0,78.6 ,0,20.0 ,0,23.0 ,0,23.2 ,0
2004/5/4,4:00,20.6 ,0,99.0 ,0,22.2 ,0,79.2 ,0,20.0 ,0,23.0 ,0,23.2 ,0
2004/5/4,4:15,20.1 ,0,99.0 ,0,21.9 ,0,80.2 ,0,20.1 ,0,23.0 ,0,23.1 ,0
2004/5/4,4:30,19.5 ,0,99.0 ,0,21.6 ,0,81.1 ,0,20.1 ,0,22.9 ,0,23.1 ,0
2004/5/4,4:45,18.8 ,0,99.0 ,0,21.3 ,0,82.0 ,0,20.2 ,0,22.9 ,0,22.9 ,0
2004/5/4,5:00,18.6 ,0,99.0 ,0,21.0 ,0,82.4 ,0,20.2 ,0,22.8 ,0,22.9 ,0
2004/5/4,5:15,18.5 ,0,99.0 ,0,20.9 ,0,82.9 ,0,20.2 ,0,22.7 ,0,22.7 ,0
2004/5/4,5:30,18.4 ,0,99.0 ,0,20.8 ,0,82.9 ,0,20.3 ,0,22.6 ,0,22.5 ,0
2004/5/4,5:45,18.3 ,0,99.0 ,0,20.6 ,0,83.0 ,0,20.3 ,0,22.4 ,0,22.4 ,0
2004/5/4,6:00,18.3 ,0,99.0 ,0,20.5 ,0,83.2 ,0,20.4 ,0,22.3 ,0,22.4 ,0
2004/5/4,6:15,18.0 ,0,99.0 ,0,20.4 ,0,83.4 ,0,20.4 ,0,22.2 ,0,22.3 ,0
2004/5/4,6:30,17.8 ,0,99.0 ,0,20.2 ,0,83.5 ,0,20.4 ,0,22.1 ,0,22.2 ,0
2004/5/4,6:45,17.6 ,0,98.0 ,0,20.1 ,0,83.7 ,0,20.5 ,0,22.0 ,0,21.9 ,0
2004/5/4,7:00,17.5 ,0,99.0 ,0,20.0 ,0,83.8 ,0,20.5 ,0,21.9 ,0,21.7 ,0
2004/5/4,7:15,17.4 ,0,99.0 ,0,19.9 ,0,84.2 ,0,20.5 ,0,21.8 ,0,21.7 ,0
2004/5/4,7:30,17.2 ,0,99.0 ,0,19.8 ,0,84.5 ,0,20.6 ,0,21.7 ,0,21.3 ,0
2004/5/4,7:45,17.1 ,0,98.0 ,0,19.8 ,0,85.3 ,0,20.2 ,0,21.7 ,0,21.2 ,0
2004/5/4,8:00,17.0 ,0,98.0 ,0,19.8 ,0,84.7 ,0,20.2 ,0,21.7 ,0,20.9 ,0
2004/5/4,8:15,16.9 ,0,97.0 ,0,20.2 ,0,83.4 ,0,20.2 ,0,21.6 ,0,21.0 ,0
2004/5/4,8:30,17.0 ,0,97.0 ,0,20.3 ,0,82.2 ,0,20.2 ,0,21.5 ,0,21.6 ,0
2004/5/4,8:45,17.1 ,0,96.0 ,0,20.2 ,0,81.8 ,0,20.3 ,0,21.8 ,0,20.9 ,0
2004/5/4,9:00,16.9 ,0,94.0 ,0,20.0 ,0,82.2 ,0,20.3 ,0,21.7 ,0,20.6 ,0
2004/5/4,9:15,16.9 ,0,94.0 ,0,20.0 ,0,81.9 ,0,20.3 ,0,21.7 ,0,20.9 ,0
2004/5/4,9:30,17.0 ,0,93.0 ,0,20.2 ,0,80.5 ,0,20.3 ,0,21.6 ,0,20.7 ,0
2004/5/4,9:45,17.1 ,0,92.0 ,0,20.0 ,0,80.5 ,0,20.3 ,0,21.5 ,0,20.6 ,0
2004/5/4,10:00,16.9 ,0,91.0 ,0,20.2 ,0,79.6 ,0,20.4 ,0,21.4 ,0,20.5 ,0
2004/5/4,10:15,17.2 ,0,91.0 ,0,20.4 ,0,78.4 ,0,20.4 ,0,21.4 ,0,20.3 ,0
2004/5/4,10:30,16.8 ,0,88.0 ,0,19.9 ,0,79.1 ,0,19.9 ,0,21.7 ,0,20.4 ,0
2004/5/4,10:45,16.5 ,0,88.0 ,0,19.6 ,0,80.5 ,0,20.0 ,0,22.2 ,0,19.8 ,0
2004/5/4,11:00,16.4 ,0,90.0 ,0,19.5 ,0,81.0 ,0,20.0 ,0,21.9 ,0,20.5 ,0